User: anonymous
Location: Unspecified
(0.0000°N, 0.0000°E)
Time: 04:19:25
(UTC+02:00)
Language:

Cosmos 1703 - Orbit

View from above orbital plane
View from above orbital plane
View from above satellite
View from above satellite

Ground track
Ground track

The orbit data is extracted from the following two-line orbital elements,

1 16262U 85108A   14245.46276876  .00002911  00000-0  19779-3 0  5132
2 16262 082.4955 167.5573 0011984 195.6249 164.4610 15.05970692565276
Epoch (UTC): 02 September 2014 11:06:23
Eccentricity: 0.0011984
inclination: 82.4955°
perigee height: 540 km
apogee height: 557 km
right ascension of ascending node: 167.5573°
argument of perigee: 195.6249°
revolutions per day: 15.05970692
mean anomaly at epoch: 164.4610°
orbit number at epoch: 56527

The dashed part of the orbit path shows where the satellite is in the earth's shadow,  

DLR